Regional Weather Roundup
Issued by NWS

Home | Current Version | Previous Version | Text Only | Print | Product List | Glossary Off
Versions: 1 2 3 4 5 6 7 8 9 10 11 12 13 14 15 16 17 18 19 20 21 22 23 24 25 26 27 28 29 30 31 32 33 34 35 36 37 38 39 40 41 42 43 44 45 46 47 48 49 50

798
ASUS45 KTFX 221710
RWRMT
MONTANA REGIONAL WEATHER ROUNDUP
NATIONAL WEATHER SERVICE GREAT FALLS MT
1100 AM MDT FRI SEP 22 2017

NOTE: "FAIR" INDICATES FEW OR NO CLOUDS BELOW 12000 FEET WITH NO
SIGNIFICANT WEATHER AND/OR OBSTRUCTIONS TO VISIBILITY.

MTZ001>007-043-221800-
WEST OF THE DIVIDE

CITY           SKY/WX    TMP DP  RH WIND       PRES   REMARKS
KALISPELL      CLOUDY    46  30  53 NE16      30.03R
MISSOULA       LGT RAIN  41  36  82 SE9       30.01R
BUTTE          LGT SNOW  33  30  88 NW8       29.93S FOG     WCI  26
MULLAN PASS    CLOUDY    31  29  92 CALM      29.97R
ANACONDA         N/A     34  27  75 N14G22    29.96S WCI  24
DEER LODGE       N/A     36  28  75 NW8       30.01R WCI  29
EUREKA           N/A     45  37  76 CALM      30.06F
HAMILTON         N/A     37  34  87 NW10      29.99R WCI  30
LIBBY            N/A     39  37  93 CALM      30.06S
$$

MTZ008-052>055-221800-
SOUTHWEST MONTANA

CITY           SKY/WX    TMP DP  RH WIND       PRES   REMARKS
BOZEMAN        CLOUDY    40  37  89 W13       29.92R
DILLON         LGT SNOW  35  32  88 N13       29.90R WCI  26
W YELLOWSTONE  FLURRIES  34  34 100 MISG      29.89R
ENNIS          LGT SNOW  34  32  93 N8        29.94R WCI  27
THREE FORKS      N/A     40  36  86 N3        29.93S
TWIN BRIDGES     N/A     35  30  82 N14       29.90R WCI  26
$$

MTZ009-010-012-014-046-048-049-054-221800-
EAST SLOPES AND CENTRAL MONTANA

CITY           SKY/WX    TMP DP  RH WIND       PRES   REMARKS
CUT BANK       CLOUDY    37  33  85 N10       30.09S WCI  30
GREAT FALLS    LGT SNOW  36  34  92 NE10      30.07S FOG     WCI  28
MALMSTROM AFB  LGT RAIN  36  36 100 NE10      30.08F WCI  28
HELENA         CLOUDY    38  33  82 N15       30.01S HAZE    WCI  29
BOWMANS CRNR   LGT SNOW  31  31 100 N13       30.04S WCI  21
CHOTEAU          N/A     36  34  93 N8        30.11R WCI  29
FAIRFIELD      LGT RAIN  35  32  87 N13       30.08R WCI  27
POWER          LGT RAIN  36  34  92 N10       30.07R WCI  28
RAYNESFORD     LGT RAIN  34  34  98 CALM      30.06S
ULM            LGT RAIN  36  35  96 NE12      30.07S WCI  28
$$

MTZ011-013-016-021-045-047-050-051-221800-
NORTH CENTRAL MONTANA

CITY           SKY/WX    TMP DP  RH WIND       PRES   REMARKS
HAVRE          CLOUDY    43  35  73 VRB5      30.10S
LEWISTOWN      CLOUDY    35  34  96 E3        30.05S FOG
N BAR RANCH    CLOUDY    34  32  93 VRB5      30.07R
CHINOOK          N/A     43  36  75 NW3       30.10S
DENTON         LGT RAIN  37  35  95 N7        30.04R WCI  31
GEYSER         DRIZZLE   35  34  98 N13       30.05S WCI  26
JUDITH GAP     LGT RAIN  33  32  99 NW20      30.01F WCI  21
WINIFRED       PTSUNNY   37  36  94 E5        30.07R
$$

MTZ017>020-022>027-061-062-221800-
NORTHEAST MONTANA

CITY           SKY/WX    TMP DP  RH WIND       PRES   REMARKS
GLASGOW        CLOUDY    41  40  96 NW9       30.06F
JORDAN           N/A     42  38  85 N14       30.04S
SIDNEY         CLOUDY    47  38  71 N15       30.01R
WOLF POINT     CLOUDY    46  39  76 NW13      30.04F
MALTA          PTSUNNY   43  37  81 CALM      30.09S
POPLAR           N/A     45  37  76 N9        30.03F
$$

MTZ028>42-056>058-221800-
SOUTHCENTRAL AND SOUTHEAST MONTANA

CITY           SKY/WX    TMP DP  RH WIND       PRES   REMARKS
BAKER          CLOUDY    48  34  58 N18       29.94F
BILLINGS       CLOUDY    40  39  97 NE18      29.99F
LIVINGSTON     CLOUDY    34  32  92 E22G29    29.95F WCI  22
MILES CITY     CLOUDY    48  34  58 N14       30.00R
BIG TIMBER     CLOUDY    32  32 100 NE9       30.02F FOG     WCI  24
HARLOWTON      LGT RAIN  33  32  98 MISG      30.02F
LAUREL           N/A     41  39  93 NE17      29.99F FOG
$$

REGIONAL REPORTS...DAKOTAS

CITY           SKY/WX    TMP DP  RH WIND       PRES   REMARKS
WILLISTON      CLOUDY    48  38  68 NE14      30.00R
MINOT          CLOUDY    49  42  77 NW13      29.92R
DICKINSON      CLOUDY    47  39  74 N21G26    29.88F
BEACH          CLOUDY    46  36  66 N18       29.99F
CROSBY         PTSUNNY   45  43  93 N10       30.01R
TIOGA          CLOUDY    46  43  87 N13       30.00R
WATFORD CITY   RAIN      46  41  81 N13G20    29.98S
BISMARCK       CLOUDY    56  45  66 N8G20     29.80R
GRAND FORKS    CLOUDY    65  55  70 N21       29.76F
FARGO          CLOUDY    76  66  71 N8        29.70F
BUFFALO SD       N/A     52  36  54 N24G31    29.80F
RAPID CITY     CLOUDY    55  39  54 NW30G38   29.84R
$$

REGIONAL REPORTS...WYOMING/IDAHO/WASHINGTON

CITY           SKY/WX    TMP DP  RH WIND       PRES   REMARKS
GILLETTE       CLOUDY    45  37  73 NW17      29.95R
SHERIDAN       CLOUDY    44  40  85 NW3       29.99R
BUFFALO WY     CLOUDY    42  37  82 N8        29.98F
CODY           CLOUDY    35  33  92 NE9       29.97S WCI  28
IDAHO FALLS    CLOUDY    42  39  89 SW12      29.92R
SALMON         LGT RAIN  43  36  76 E7        29.91R
BOISE          CLOUDY    44  41  89 W10       29.94R
SPOKANE        PTSUNNY   48  42  80 NE5       30.01S
$$

REGIONAL REPORTS...ALBERTA

CITY           SKY/WX    TMP DP  RH WIND       PRES   REMARKS
EDMONTON       PTSUNNY   41  37  87 N2        30.11F
CALGARY        CLOUDY    37  32  81 N3        30.11S
LETHBRIDGE     CLOUDY    37  36  93 W12G18    30.12S FOG     WCI  30
MEDICINE HAT   LGT RAIN  41  39  93 VRB2      30.11R
$$

REGIONAL REPORTS...SASKATCHEWAN

CITY           SKY/WX    TMP DP  RH WIND       PRES   REMARKS
SWIFT CURRENT  CLOUDY    39  36  87 NW9       30.06R
REGINA         CLOUDY    45  41  87 NW7       30.05R
SASKATOON      LGT RAIN  43  39  87 N7        30.09S
$$




USA.gov is the U.S. government's official web portal to all federal, state and local government web resources and services.